| time (UTC) | temp C | wind direction | speed KPH | gust KPH | rain 1hr cm | rain 24hr cm | rain mn cm | humidity % | barometer mb |
| 20260510011607 | 15 | 360 | 0.0 | 0.0 | 0.00 | 0.00 | 0.00 | 88 | 1008.5 |
| 20260510011108 | 15 | 360 | 0.0 | 0.0 | 0.00 | 0.00 | 0.00 | 88 | 1008.4 |
| 20260510010520 | 15 | 360 | 0.0 | 0.0 | 0.00 | 0.00 | 0.00 | 87 | 1008.4 |
| 20260510010120 | 15 | 360 | 0.0 | 0.0 | 0.00 | 0.00 | 0.00 | 87 | 1008.4 |
| 20260510005621 | 15 | 168 | 0.0 | 0.0 | 0.00 | 0.00 | 0.00 | 86 | 1008.3 |
| 20260510005122 | 16 | 168 | 0.0 | 0.0 | 0.00 | 0.00 | 0.00 | 85 | 1008.3 |
| 20260510004622 | 16 | 168 | 0.0 | 0.0 | 0.00 | 0.00 | 0.00 | 84 | 1008.3 |
| 20260510004005 | 16 | 85 | 0.0 | 0.0 | 0.00 | 0.00 | 0.00 | 84 | 1008.2 |
| 20260510003604 | 16 | 360 | 0.0 | 0.0 | 0.00 | 0.00 | 0.00 | 83 | 1008.2 |
| 20260510003111 | 16 | 83 | 0.0 | 0.0 | 0.00 | 0.00 | 0.00 | 82 | 1008.2 |
| 20260510002612 | 17 | 360 | 0.0 | 0.0 | 0.00 | 0.00 | 0.00 | 81 | 1008.1 |
| 20260510002116 | 17 | 360 | 0.0 | 0.0 | 0.00 | 0.00 | 0.00 | 80 | 1008.1 |
| 20260510001616 | 17 | 360 | 0.0 | 0.0 | 0.00 | 0.00 | 0.00 | 79 | 1008.1 |
| 20260510001119 | 17 | 82 | 0.0 | 0.0 | 0.00 | 0.00 | 0.00 | 78 | 1008.0 |
| 20260510000508 | 18 | 82 | 0.0 | 0.0 | 0.00 | 0.00 | 0.00 | 76 | 1008.0 |
| 20260510000109 | 18 | 82 | 0.0 | 0.0 | 0.00 | 0.00 | 0.00 | 76 | 1008.0 |
| 20260509235612 | 18 | 82 | 0.0 | 0.0 | 0.00 | 0.00 | 0.00 | 75 | 1008.0 |
| 20260509235112 | 18 | 82 | 0.0 | 0.0 | 0.00 | 0.00 | 0.00 | 74 | 1008.0 |
| 20260509234612 | 19 | 82 | 0.0 | 0.0 | 0.00 | 0.00 | 0.00 | 74 | 1008.0 |
| 20260509234115 | 19 | 82 | 0.0 | 0.0 | 0.00 | 0.00 | 0.00 | 73 | 1007.9 |
| 20260509233614 | 20 | 82 | 0.0 | 0.0 | 0.00 | 0.00 | 0.00 | 72 | 1007.9 |
| 20260509233114 | 20 | 82 | 0.0 | 1.6 | 0.00 | 0.00 | 0.00 | 72 | 1007.9 |
| 20260509232617 | 20 | 75 | 0.0 | 0.0 | 0.00 | 0.00 | 0.00 | 71 | 1007.8 |
| 20260509232118 | 20 | 49 | 0.0 | 3.2 | 0.00 | 0.00 | 0.00 | 70 | 1007.8 |
| 20260509231621 | 20 | 48 | 0.0 | 3.2 | 0.00 | 0.00 | 0.00 | 71 | 1007.8 |
| 20260509231125 | 20 | 25 | 0.0 | 4.8 | 0.00 | 0.00 | 0.00 | 69 | 1007.8 |
| 20260509230513 | 20 | 340 | 0.0 | 3.2 | 0.00 | 0.00 | 0.00 | 73 | 1007.8 |
| 20260509230115 | 20 | 5 | 0.0 | 1.6 | 0.00 | 0.00 | 0.00 | 72 | 1007.8 |
| 20260509225614 | 20 | 5 | 0.0 | 1.6 | 0.00 | 0.00 | 0.00 | 73 | 1007.8 |
| 20260509225120 | 20 | 33 | 0.0 | 3.2 | 0.00 | 0.00 | 0.00 | 70 | 1007.8 |
| 20260509224505 | 20 | 19 | 0.0 | 0.0 | 0.00 | 0.00 | 0.00 | 70 | 1007.8 |
| 20260509224107 | 20 | 19 | 0.0 | 0.0 | 0.00 | 0.00 | 0.00 | 70 | 1007.7 |
| 20260509223605 | 21 | 17 | 0.0 | 1.6 | 0.00 | 0.00 | 0.00 | 69 | 1007.7 |
| 20260509223107 | 21 | 17 | 0.0 | 1.6 | 0.00 | 0.00 | 0.00 | 68 | 1007.7 |
| 20260509222610 | 21 | 250 | 0.0 | 0.0 | 0.00 | 0.00 | 0.00 | 68 | 1007.8 |
| 20260509222109 | 21 | 235 | 0.0 | 0.0 | 0.00 | 0.00 | 0.00 | 64 | 1007.8 |
| 20260509221613 | 21 | 235 | 0.0 | 0.0 | 0.00 | 0.00 | 0.00 | 63 | 1007.8 |
| 20260509221113 | 21 | 235 | 0.0 | 1.6 | 0.00 | 0.00 | 0.00 | 64 | 1007.7 |
| 20260509220520 | 21 | 255 | 0.0 | 1.6 | 0.00 | 0.00 | 0.00 | 64 | 1007.7 |
| 20260509220119 | 21 | 281 | 0.0 | 1.6 | 0.00 | 0.00 | 0.00 | 66 | 1007.7 |
| 20260509215506 | 21 | 281 | 0.0 | 3.2 | 0.00 | 0.00 | 0.00 | 64 | 1007.7 |
| 20260509215107 | 21 | 281 | 0.0 | 4.8 | 0.00 | 0.00 | 0.00 | 67 | 1007.7 |
| 20260509214606 | 22 | 134 | 1.6 | 4.8 | 0.00 | 0.00 | 0.00 | 60 | 1007.7 |
| 20260509214109 | 22 | 250 | 0.0 | 1.6 | 0.00 | 0.00 | 0.00 | 66 | 1007.7 |
| 20260509213610 | 22 | 271 | 0.0 | 1.6 | 0.00 | 0.00 | 0.00 | 61 | 1007.7 |
| 20260509213110 | 22 | 263 | 0.0 | 3.2 | 0.00 | 0.00 | 0.00 | 62 | 1007.7 |
| 20260509212611 | 22 | 254 | 0.0 | 9.7 | 0.00 | 0.00 | 0.00 | 57 | 1007.7 |
| 20260509212113 | 22 | 240 | 4.8 | 9.7 | 0.00 | 0.00 | 0.00 | 56 | 1007.7 |
| 20260509211615 | 22 | 245 | 3.2 | 19.3 | 0.00 | 0.00 | 0.00 | 57 | 1007.7 |
| 20260509211117 | 22 | 250 | 6.4 | 19.3 | 0.00 | 0.00 | 0.00 | 55 | 1007.6 |
| 20260509210507 | 22 | 183 | 4.8 | 12.9 | 0.00 | 0.00 | 0.00 | 57 | 1007.6 |
| 20260509210109 | 22 | 316 | 3.2 | 11.3 | 0.00 | 0.00 | 0.00 | 55 | 1007.6 |
| 20260509205608 | 22 | 137 | 1.6 | 12.9 | 0.00 | 0.00 | 0.00 | 55 | 1007.8 |
| 20260509205109 | 22 | 201 | 9.7 | 12.9 | 0.00 | 0.00 | 0.00 | 60 | 1007.8 |
| 20260509204619 | 22 | 227 | 8.0 | 12.9 | 0.00 | 0.00 | 0.00 | 59 | 1007.8 |
| 20260509204119 | 22 | 206 | 3.2 | 11.3 | 0.00 | 0.00 | 0.00 | 59 | 1007.6 |
| 20260509203622 | 22 | 214 | 1.6 | 11.3 | 0.00 | 0.00 | 0.00 | 58 | 1007.6 |
| 20260509203121 | 22 | 242 | 1.6 | 11.3 | 0.00 | 0.00 | 0.00 | 58 | 1007.6 |
| 20260509202504 | 22 | 256 | 1.6 | 14.5 | 0.00 | 0.00 | 0.00 | 60 | 1007.5 |
| 20260509202104 | 22 | 159 | 4.8 | 22.5 | 0.00 | 0.00 | 0.00 | 61 | 1007.5 |
| 20260509201610 | 22 | 196 | 3.2 | 22.5 | 0.00 | 0.00 | 0.00 | 64 | 1007.5 |
| 20260509201111 | 22 | 202 | 4.8 | 16.1 | 0.00 | 0.00 | 0.00 | 60 | 1007.8 |
| 20260509200503 | 22 | 187 | 4.8 | 16.1 | 0.00 | 0.00 | 0.00 | 61 | 1007.8 |
| 20260509200110 | 22 | 195 | 8.0 | 16.1 | 0.00 | 0.00 | 0.00 | 62 | 1007.8 |
| 20260509195610 | 22 | 202 | 8.0 | 17.7 | 0.00 | 0.00 | 0.00 | 61 | 1008.0 |
| 20260509195107 | 22 | 202 | 11.3 | 17.7 | 0.00 | 0.00 | 0.00 | 62 | 1008.0 |
| 20260509194612 | 21 | 246 | 4.8 | 16.1 | 0.00 | 0.00 | 0.00 | 63 | 1008.0 |
| 20260509194116 | 21 | 207 | 6.4 | 16.1 | 0.00 | 0.00 | 0.00 | 67 | 1008.3 |
| 20260509193620 | 21 | 225 | 8.0 | 14.5 | 0.00 | 0.00 | 0.00 | 63 | 1008.3 |
| 20260509193119 | 21 | 109 | 1.6 | 11.3 | 0.00 | 0.00 | 0.00 | 62 | 1008.3 |
| 20260509192621 | 21 | 207 | 4.8 | 11.3 | 0.00 | 0.00 | 0.00 | 62 | 1008.5 |
| 20260509192120 | 21 | 40 | 1.6 | 11.3 | 0.00 | 0.00 | 0.00 | 65 | 1008.5 |
| 20260509191511 | 21 | 222 | 6.4 | 12.9 | 0.00 | 0.00 | 0.00 | 64 | 1008.5 |
| 20260509191105 | 21 | 172 | 3.2 | 12.9 | 0.00 | 0.00 | 0.00 | 63 | 1008.8 |
| 20260509190518 | 20 | 261 | 1.6 | 4.8 | 0.00 | 0.00 | 0.00 | 64 | 1008.8 |
| 20260509190118 | 21 | 277 | 0.0 | 3.2 | 0.00 | 0.00 | 0.00 | 63 | 1008.8 |
| 20260509185619 | 21 | 278 | 0.0 | 3.2 | 0.00 | 0.00 | 0.00 | 66 | 1008.6 |
| 20260509185120 | 21 | 217 | 0.0 | 6.4 | 0.00 | 0.00 | 0.00 | 66 | 1008.6 |
| 20260509184507 | 21 | 15 | 1.6 | 6.4 | 0.00 | 0.00 | 0.00 | 63 | 1008.6 |
| 20260509184107 | 21 | 223 | 0.0 | 3.2 | 0.00 | 0.00 | 0.00 | 67 | 1009.0 |
| 20260509183608 | 20 | 303 | 0.0 | 4.8 | 0.00 | 0.00 | 0.00 | 69 | 1009.0 |
| 20260509183110 | 20 | 101 | 0.0 | 4.8 | 0.00 | 0.00 | 0.00 | 66 | 1009.0 |
| 20260509182612 | 20 | 298 | 0.0 | 3.2 | 0.00 | 0.00 | 0.00 | 67 | 1009.0 |
| 20260509182112 | 20 | 306 | 0.0 | 4.8 | 0.00 | 0.00 | 0.00 | 66 | 1009.0 |
| 20260509181623 | 19 | 52 | 1.6 | 4.8 | 0.00 | 0.00 | 0.00 | 68 | 1009.0 |
| 20260509181115 | 19 | 71 | 1.6 | 6.4 | 0.00 | 0.00 | 0.00 | 67 | 1009.6 |
| 20260509180507 | 18 | 63 | 1.6 | 6.4 | 0.00 | 0.00 | 0.00 | 68 | 1009.6 |
| 20260509180107 | 18 | 36 | 0.0 | 6.4 | 0.00 | 0.00 | 0.00 | 67 | 1009.6 |
| 20260509175610 | 18 | 355 | 0.0 | 4.8 | 0.00 | 0.00 | 0.00 | 68 | 1009.9 |
| 20260509175112 | 18 | 18 | 1.6 | 3.2 | 0.00 | 0.00 | 0.00 | 71 | 1009.9 |
| 20260509174613 | 18 | 300 | 0.0 | 9.7 | 0.00 | 0.00 | 0.00 | 68 | 1009.9 |
| 20260509174113 | 18 | 34 | 4.8 | 11.3 | 0.00 | 0.00 | 0.00 | 68 | 1010.0 |
| 20260509173617 | 18 | 14 | 0.0 | 4.8 | 0.00 | 0.00 | 0.00 | 68 | 1010.0 |
| 20260509173116 | 18 | 348 | 1.6 | 9.7 | 0.00 | 0.00 | 0.00 | 68 | 1010.0 |
| 20260509172616 | 19 | 21 | 4.8 | 11.3 | 0.00 | 0.00 | 0.00 | 67 | 1010.0 |
| 20260509172119 | 19 | 324 | 4.8 | 12.9 | 0.00 | 0.00 | 0.00 | 67 | 1010.0 |
| 20260509171619 | 19 | 360 | 6.4 | 12.9 | 0.00 | 0.00 | 0.00 | 67 | 1010.0 |
| 20260509171119 | 19 | 276 | 0.0 | 9.7 | 0.00 | 0.00 | 0.00 | 65 | 1010.0 |
| 20260509170513 | 19 | 222 | 3.2 | 9.7 | 0.00 | 0.00 | 0.00 | 68 | 1010.0 |
| 20260509170114 | 19 | 158 | 4.8 | 9.7 | 0.00 | 0.00 | 0.00 | 67 | 1010.0 |
| 20260509165616 | 19 | 260 | 1.6 | 6.4 | 0.00 | 0.00 | 0.00 | 67 | 1010.1 |
| 20260509165115 | 19 | 337 | 1.6 | 9.7 | 0.00 | 0.00 | 0.00 | 65 | 1010.1 |
| 20260509164617 | 19 | 216 | 3.2 | 11.3 | 0.00 | 0.00 | 0.00 | 67 | 1010.1 |
| 20260509164118 | 18 | 189 | 6.4 | 11.3 | 0.00 | 0.00 | 0.00 | 68 | 1010.2 |
| 20260509163509 | 18 | 317 | 1.6 | 8.0 | 0.00 | 0.00 | 0.00 | 67 | 1010.2 |
| 20260509163008 | 18 | 294 | 1.6 | 6.4 | 0.00 | 0.00 | 0.00 | 68 | 1010.2 |
| 20260509162606 | 18 | 310 | 0.0 | 4.8 | 0.00 | 0.00 | 0.00 | 66 | 1010.1 |
| 20260509162107 | 18 | 59 | 0.0 | 4.8 | 0.00 | 0.00 | 0.00 | 65 | 1010.1 |
| 20260509161607 | 18 | 17 | 1.6 | 4.8 | 0.00 | 0.00 | 0.00 | 70 | 1010.1 |
| 20260509161106 | 18 | 351 | 1.6 | 4.8 | 0.00 | 0.00 | 0.00 | 68 | 1010.2 |
| 20260509160516 | 19 | 317 | 0.0 | 6.4 | 0.00 | 0.00 | 0.00 | 64 | 1010.2 |
| 20260509160116 | 19 | 240 | 1.6 | 6.4 | 0.00 | 0.00 | 0.00 | 68 | 1010.2 |
| 20260509155503 | 19 | 79 | 1.6 | 6.4 | 0.00 | 0.00 | 0.00 | 66 | 1010.4 |
| 20260509155103 | 19 | 202 | 1.6 | 6.4 | 0.00 | 0.00 | 0.00 | 62 | 1010.4 |
| 20260509154607 | 18 | 312 | 1.6 | 8.0 | 0.00 | 0.00 | 0.00 | 66 | 1010.4 |
| 20260509154110 | 18 | 209 | 1.6 | 8.0 | 0.00 | 0.00 | 0.00 | 66 | 1010.4 |
| 20260509153612 | 18 | 225 | 1.6 | 9.7 | 0.00 | 0.00 | 0.00 | 67 | 1010.4 |
| 20260509153111 | 18 | 229 | 1.6 | 9.7 | 0.00 | 0.00 | 0.00 | 65 | 1010.4 |
| 20260509152618 | 17 | 307 | 0.0 | 11.3 | 0.00 | 0.00 | 0.00 | 67 | 1010.6 |
| 20260509152004 | 17 | 205 | 4.8 | 11.3 | 0.00 | 0.00 | 0.00 | 67 | 1010.6 |
| 20260509151606 | 17 | 243 | 1.6 | 9.7 | 0.00 | 0.00 | 0.00 | 66 | 1010.6 |
| 20260509151106 | 17 | 84 | 1.6 | 9.7 | 0.00 | 0.00 | 0.00 | 67 | 1010.6 |
| 20260509150517 | 17 | 102 | 3.2 | 9.7 | 0.00 | 0.00 | 0.00 | 65 | 1010.6 |
| 20260509150118 | 17 | 207 | 3.2 | 11.3 | 0.00 | 0.00 | 0.00 | 68 | 1010.6 |
| 20260509145621 | 17 | 240 | 4.8 | 11.3 | 0.00 | 0.00 | 0.00 | 67 | 1010.7 |
| 20260509145122 | 17 | 192 | 3.2 | 11.3 | 0.00 | 0.00 | 0.00 | 67 | 1010.7 |
| 20260509144514 | 17 | 206 | 4.8 | 9.7 | 0.00 | 0.00 | 0.00 | 68 | 1010.7 |
| 20260509144104 | 17 | 184 | 3.2 | 8.0 | 0.00 | 0.00 | 0.00 | 69 | 1011.0 |
| 20260509143606 | 16 | 183 | 1.6 | 9.7 | 0.00 | 0.00 | 0.00 | 73 | 1011.0 |
| 20260509143134 | 16 | 256 | 4.8 | 12.9 | 0.00 | 0.00 | 0.00 | 68 | 1011.0 |
| 20260509142612 | 16 | 116 | 6.4 | 12.9 | 0.00 | 0.00 | 0.00 | 70 | 1011.1 |
| 20260509142114 | 16 | 360 | 1.6 | 8.0 | 0.00 | 0.00 | 0.00 | 71 | 1011.1 |
| 20260509141619 | 15 | 360 | 3.2 | 6.4 | 0.00 | 0.00 | 0.00 | 70 | 1011.1 |
| 20260509141125 | 15 | 360 | 1.6 | 9.7 | 0.00 | 0.00 | 0.00 | 72 | 1011.0 |
| 20260509140509 | 15 | 360 | 1.6 | 6.4 | 0.00 | 0.00 | 0.00 | 69 | 1011.0 |
| 20260509140108 | 15 | 360 | 0.0 | 9.7 | 0.00 | 0.00 | 0.00 | 72 | 1011.0 |
| 20260509135609 | 15 | 360 | 4.8 | 9.7 | 0.00 | 0.00 | 0.00 | 71 | 1011.0 |
| 20260509135116 | 15 | 360 | 3.2 | 8.0 | 0.00 | 0.00 | 0.00 | 71 | 1011.0 |
| 20260509134617 | 15 | 360 | 4.8 | 12.9 | 0.00 | 0.00 | 0.00 | 72 | 1011.0 |
| 20260509134122 | 15 | 360 | 4.8 | 16.1 | 0.00 | 0.00 | 0.00 | 69 | 1011.1 |
| 20260509133509 | 15 | 360 | 4.8 | 11.3 | 0.00 | 0.00 | 0.00 | 70 | 1011.1 |
| 20260509133104 | 15 | 360 | 3.2 | 11.3 | 0.00 | 0.00 | 0.00 | 71 | 1011.1 |
| 20260509132606 | 15 | 360 | 3.2 | 11.3 | 0.00 | 0.00 | 0.00 | 71 | 1011.1 |
| 20260509132114 | 15 | 360 | 3.2 | 11.3 | 0.00 | 0.00 | 0.00 | 69 | 1011.1 |
| 20260509131617 | 15 | 360 | 1.6 | 11.3 | 0.00 | 0.00 | 0.00 | 70 | 1011.1 |
| 20260509131118 | 15 | 360 | 3.2 | 9.7 | 0.00 | 0.00 | 0.00 | 68 | 1011.1 |
| 20260509130508 | 15 | 360 | 4.8 | 9.7 | 0.00 | 0.00 | 0.00 | 70 | 1011.1 |
| 20260509130108 | 15 | 360 | 1.6 | 6.4 | 0.00 | 0.00 | 0.00 | 69 | 1011.1 |
| 20260509125612 | 15 | 360 | 3.2 | 11.3 | 0.00 | 0.00 | 0.00 | 69 | 1011.2 |
| 20260509125114 | 15 | 360 | 4.8 | 11.3 | 0.00 | 0.00 | 0.00 | 68 | 1011.2 |
| 20260509124614 | 15 | 360 | 0.0 | 6.4 | 0.00 | 0.00 | 0.00 | 68 | 1011.2 |
| 20260509124114 | 15 | 360 | 1.6 | 6.4 | 0.00 | 0.00 | 0.00 | 67 | 1011.1 |
| 20260509123614 | 15 | 360 | 0.0 | 4.8 | 0.00 | 0.00 | 0.00 | 69 | 1011.1 |
| 20260509123132 | 15 | 360 | 0.0 | 1.6 | 0.00 | 0.00 | 0.00 | 68 | 1011.1 |
| 20260509122504 | 15 | 360 | 0.0 | 3.2 | 0.00 | 0.00 | 0.00 | 67 | 1010.9 |
| 20260509122105 | 14 | 360 | 0.0 | 8.0 | 0.00 | 0.00 | 0.00 | 70 | 1010.9 |
| 20260509121621 | 14 | 360 | 0.0 | 8.0 | 0.00 | 0.00 | 0.00 | 69 | 1010.9 |
| 20260509121108 | 14 | 360 | 1.6 | 11.3 | 0.00 | 0.00 | 0.00 | 67 | 1010.8 |
| 20260509120522 | 14 | 360 | 4.8 | 11.3 | 0.00 | 0.00 | 0.00 | 69 | 1010.8 |
| 20260509120119 | 14 | 360 | 3.2 | 11.3 | 0.00 | 0.00 | 0.00 | 68 | 1010.8 |
| 20260509115621 | 14 | 360 | 1.6 | 11.3 | 0.00 | 0.00 | 0.00 | 70 | 1010.8 |
| 20260509115009 | 13 | 360 | 4.8 | 12.9 | 0.00 | 0.00 | 0.00 | 69 | 1010.8 |
| 20260509114607 | 14 | 360 | 3.2 | 14.5 | 0.00 | 0.00 | 0.00 | 70 | 1010.8 |
| 20260509114109 | 14 | 360 | 6.4 | 14.5 | 0.00 | 0.00 | 0.00 | 70 | 1010.7 |
| 20260509113608 | 14 | 360 | 3.2 | 11.3 | 0.00 | 0.00 | 0.00 | 69 | 1010.7 |
| 20260509113113 | 14 | 360 | 3.2 | 11.3 | 0.00 | 0.00 | 0.00 | 68 | 1010.7 |
| 20260509112612 | 14 | 360 | 1.6 | 14.5 | 0.00 | 0.00 | 0.00 | 68 | 1010.5 |
| 20260509112115 | 14 | 360 | 1.6 | 14.5 | 0.00 | 0.00 | 0.00 | 67 | 1010.5 |
| 20260509111620 | 14 | 360 | 4.8 | 9.7 | 0.00 | 0.00 | 0.00 | 67 | 1010.5 |
| 20260509111123 | 14 | 360 | 4.8 | 11.3 | 0.00 | 0.00 | 0.00 | 67 | 1010.6 |
| 20260509110516 | 14 | 360 | 6.4 | 17.7 | 0.00 | 0.00 | 0.00 | 66 | 1010.6 |
| 20260509110116 | 13 | 360 | 4.8 | 17.7 | 0.00 | 0.00 | 0.00 | 66 | 1010.6 |
| 20260509105618 | 13 | 360 | 4.8 | 14.5 | 0.00 | 0.00 | 0.00 | 66 | 1010.3 |
| 20260509105007 | 13 | 360 | 6.4 | 11.3 | 0.00 | 0.00 | 0.00 | 67 | 1010.3 |
| 20260509104607 | 13 | 360 | 3.2 | 11.3 | 0.00 | 0.00 | 0.00 | 67 | 1010.3 |
| 20260509104109 | 13 | 360 | 3.2 | 9.7 | 0.00 | 0.00 | 0.00 | 68 | 1010.3 |
| 20260509103612 | 13 | 360 | 3.2 | 11.3 | 0.00 | 0.00 | 0.00 | 70 | 1010.3 |
| 20260509103113 | 13 | 360 | 4.8 | 11.3 | 0.00 | 0.00 | 0.00 | 67 | 1010.3 |
| 20260509102619 | 13 | 360 | 3.2 | 12.9 | 0.00 | 0.00 | 0.00 | 67 | 1010.2 |
| 20260509102005 | 13 | 360 | 4.8 | 16.1 | 0.00 | 0.00 | 0.00 | 65 | 1010.2 |
| 20260509101625 | 13 | 360 | 6.4 | 16.1 | 0.00 | 0.00 | 0.00 | 67 | 1010.2 |
| 20260509101106 | 13 | 360 | 6.4 | 14.5 | 0.00 | 0.00 | 0.00 | 67 | 1010.2 |
| 20260509100517 | 13 | 360 | 1.6 | 12.9 | 0.00 | 0.00 | 0.00 | 67 | 1010.2 |
| 20260509100117 | 13 | 360 | 4.8 | 16.1 | 0.00 | 0.00 | 0.00 | 66 | 1010.2 |
| 20260509095618 | 13 | 360 | 8.0 | 16.1 | 0.00 | 0.00 | 0.00 | 66 | 1010.1 |
| 20260509095118 | 13 | 360 | 6.4 | 11.3 | 0.00 | 0.00 | 0.00 | 70 | 1010.1 |
| 20260509094621 | 13 | 360 | 4.8 | 12.9 | 0.00 | 0.00 | 0.00 | 69 | 1010.1 |
| 20260509094124 | 13 | 360 | 3.2 | 14.5 | 0.00 | 0.00 | 0.00 | 68 | 1010.2 |
| 20260509093504 | 13 | 360 | 3.2 | 11.3 | 0.00 | 0.00 | 0.00 | 69 | 1010.2 |
| 20260509093108 | 13 | 360 | 1.6 | 14.5 | 0.00 | 0.00 | 0.00 | 69 | 1010.2 |
| 20260509092605 | 13 | 360 | 4.8 | 14.5 | 0.00 | 0.00 | 0.00 | 70 | 1010.5 |
| 20260509092109 | 13 | 360 | 3.2 | 8.0 | 0.00 | 0.00 | 0.00 | 69 | 1010.5 |
| 20260509091608 | 13 | 360 | 3.2 | 11.3 | 0.00 | 0.00 | 0.00 | 70 | 1010.5 |
| 20260509091118 | 13 | 360 | 3.2 | 11.3 | 0.00 | 0.00 | 0.00 | 67 | 1010.6 |
| 20260509090508 | 13 | 360 | 4.8 | 8.0 | 0.00 | 0.00 | 0.00 | 70 | 1010.6 |
| 20260509090106 | 13 | 360 | 1.6 | 11.3 | 0.00 | 0.00 | 0.00 | 69 | 1010.6 |
| 20260509085605 | 13 | 360 | 3.2 | 11.3 | 0.00 | 0.00 | 0.00 | 68 | 1010.7 |
| 20260509085107 | 13 | 360 | 3.2 | 11.3 | 0.00 | 0.00 | 0.00 | 70 | 1010.7 |
| 20260509084608 | 13 | 360 | 1.6 | 11.3 | 0.00 | 0.00 | 0.00 | 68 | 1010.7 |
| 20260509084111 | 13 | 360 | 4.8 | 11.3 | 0.00 | 0.00 | 0.00 | 68 | 1010.8 |
| 20260509083616 | 13 | 360 | 3.2 | 11.3 | 0.00 | 0.00 | 0.00 | 68 | 1010.8 |
| 20260509083115 | 13 | 360 | 3.2 | 11.3 | 0.00 | 0.00 | 0.00 | 67 | 1010.8 |
| 20260509082615 | 13 | 360 | 1.6 | 12.9 | 0.00 | 0.00 | 0.00 | 67 | 1011.0 |
| 20260509082118 | 13 | 360 | 4.8 | 12.9 | 0.00 | 0.00 | 0.00 | 65 | 1011.0 |
| 20260509081622 | 13 | 360 | 3.2 | 14.5 | 0.00 | 0.00 | 0.00 | 66 | 1011.0 |
| 20260509081119 | 13 | 360 | 6.4 | 14.5 | 0.00 | 0.00 | 0.00 | 66 | 1011.2 |
| 20260509080517 | 13 | 360 | 3.2 | 9.7 | 0.00 | 0.00 | 0.00 | 66 | 1011.2 |
| 20260509080117 | 13 | 360 | 4.8 | 12.9 | 0.00 | 0.00 | 0.00 | 64 | 1011.2 |
| 20260509075620 | 13 | 360 | 4.8 | 12.9 | 0.00 | 0.00 | 0.00 | 65 | 1011.2 |
| 20260509075123 | 13 | 360 | 3.2 | 11.3 | 0.00 | 0.00 | 0.00 | 63 | 1011.2 |
| 20260509074621 | 13 | 360 | 4.8 | 11.3 | 0.00 | 0.00 | 0.00 | 65 | 1011.2 |
| 20260509074005 | 13 | 360 | 1.6 | 12.9 | 0.00 | 0.00 | 0.00 | 64 | 1011.2 |
| 20260509073604 | 13 | 360 | 3.2 | 14.5 | 0.00 | 0.00 | 0.00 | 64 | 1011.2 |
| 20260509073108 | 13 | 360 | 4.8 | 16.1 | 0.00 | 0.00 | 0.00 | 63 | 1011.2 |
| 20260509072607 | 14 | 360 | 8.0 | 16.1 | 0.00 | 0.00 | 0.00 | 62 | 1011.1 |
| 20260509072107 | 14 | 360 | 4.8 | 14.5 | 0.00 | 0.00 | 0.00 | 61 | 1011.1 |
| 20260509071608 | 14 | 360 | 3.2 | 17.7 | 0.00 | 0.00 | 0.00 | 61 | 1011.1 |
| 20260509071106 | 14 | 360 | 6.4 | 17.7 | 0.00 | 0.00 | 0.00 | 60 | 1011.1 |
| 20260509070520 | 14 | 360 | 4.8 | 16.1 | 0.00 | 0.00 | 0.00 | 60 | 1011.1 |
| 20260509070119 | 14 | 360 | 3.2 | 17.7 | 0.00 | 0.00 | 0.00 | 61 | 1011.1 |
| 20260509065619 | 14 | 360 | 3.2 | 17.7 | 0.00 | 0.00 | 0.00 | 61 | 1011.1 |
| 20260509065120 | 14 | 360 | 8.0 | 16.1 | 0.00 | 0.00 | 0.00 | 61 | 1011.1 |
| 20260509064621 | 14 | 360 | 6.4 | 17.7 | 0.00 | 0.00 | 0.00 | 61 | 1011.1 |
| 20260509064123 | 14 | 360 | 4.8 | 14.5 | 0.00 | 0.00 | 0.00 | 60 | 1011.2 |
| 20260509063622 | 14 | 360 | 6.4 | 16.1 | 0.00 | 0.00 | 0.00 | 60 | 1011.2 |
| 20260509063117 | 14 | 360 | 4.8 | 17.7 | 0.00 | 0.00 | 0.00 | 61 | 1011.2 |
| 20260509062626 | 14 | 360 | 4.8 | 17.7 | 0.00 | 0.00 | 0.00 | 61 | 1011.4 |
| 20260509062125 | 14 | 360 | 8.0 | 17.7 | 0.00 | 0.00 | 0.00 | 62 | 1011.4 |
| 20260509061502 | 14 | 360 | 4.8 | 9.7 | 0.00 | 0.00 | 0.00 | 61 | 1011.4 |
| 20260509061106 | 14 | 360 | 4.8 | 16.1 | 0.00 | 0.00 | 0.00 | 61 | 1011.5 |
| 20260509060514 | 14 | 360 | 6.4 | 16.1 | 0.00 | 0.00 | 0.00 | 61 | 1011.5 |
| 20260509060114 | 14 | 360 | 3.2 | 12.9 | 0.00 | 0.00 | 0.00 | 60 | 1011.5 |
| 20260509055620 | 14 | 360 | 4.8 | 17.7 | 0.00 | 0.00 | 0.00 | 59 | 1011.4 |
| 20260509055119 | 14 | 360 | 6.4 | 17.7 | 0.00 | 0.00 | 0.00 | 60 | 1011.4 |
| 20260509054619 | 14 | 360 | 6.4 | 14.5 | 0.00 | 0.00 | 0.00 | 61 | 1011.4 |
| 20260509054122 | 14 | 360 | 3.2 | 11.3 | 0.00 | 0.00 | 0.00 | 60 | 1011.5 |
| 20260509053620 | 14 | 360 | 1.6 | 11.3 | 0.00 | 0.00 | 0.00 | 60 | 1011.5 |
| 20260509053007 | 14 | 360 | 6.4 | 12.9 | 0.00 | 0.00 | 0.00 | 60 | 1011.5 |
| 20260509052607 | 14 | 360 | 6.4 | 14.5 | 0.00 | 0.00 | 0.00 | 60 | 1011.7 |
| 20260509052109 | 14 | 360 | 4.8 | 14.5 | 0.00 | 0.00 | 0.00 | 59 | 1011.7 |
| 20260509051611 | 14 | 360 | 3.2 | 14.5 | 0.00 | 0.00 | 0.00 | 60 | 1011.7 |
| 20260509051113 | 14 | 360 | 4.8 | 19.3 | 0.00 | 0.00 | 0.00 | 61 | 1011.6 |
| 20260509050522 | 14 | 360 | 4.8 | 19.3 | 0.00 | 0.00 | 0.00 | 61 | 1011.6 |
| 20260509050120 | 14 | 360 | 6.4 | 14.5 | 0.00 | 0.00 | 0.00 | 59 | 1011.6 |
| 20260509045508 | 13 | 360 | 1.6 | 8.0 | 0.00 | 0.00 | 0.00 | 60 | 1011.5 |
| 20260509045108 | 13 | 360 | 3.2 | 9.7 | 0.00 | 0.00 | 0.00 | 61 | 1011.5 |
| 20260509044608 | 13 | 360 | 4.8 | 9.7 | 0.00 | 0.00 | 0.00 | 60 | 1011.5 |
| 20260509044111 | 13 | 360 | 1.6 | 14.5 | 0.00 | 0.00 | 0.00 | 61 | 1011.7 |
| 20260509043615 | 13 | 360 | 1.6 | 14.5 | 0.00 | 0.00 | 0.00 | 61 | 1011.7 |
| 20260509043115 | 13 | 360 | 4.8 | 11.3 | 0.00 | 0.00 | 0.00 | 61 | 1011.7 |
| 20260509042618 | 13 | 360 | 4.8 | 12.9 | 0.00 | 0.00 | 0.00 | 61 | 1011.6 |
| 20260509042009 | 13 | 360 | 3.2 | 11.3 | 0.00 | 0.00 | 0.00 | 61 | 1011.6 |
| 20260509041621 | 13 | 360 | 1.6 | 11.3 | 0.00 | 0.00 | 0.00 | 62 | 1011.6 |
| 20260509041109 | 13 | 360 | 4.8 | 9.7 | 0.00 | 0.00 | 0.00 | 61 | 1011.7 |
| 20260509040521 | 13 | 360 | 3.2 | 9.7 | 0.00 | 0.00 | 0.00 | 61 | 1011.7 |
| 20260509040121 | 13 | 360 | 1.6 | 12.9 | 0.00 | 0.00 | 0.00 | 62 | 1011.7 |
| 20260509035506 | 13 | 360 | 4.8 | 14.5 | 0.00 | 0.00 | 0.00 | 61 | 1011.8 |
| 20260509035105 | 13 | 360 | 4.8 | 14.5 | 0.00 | 0.00 | 0.00 | 61 | 1011.8 |
| 20260509034605 | 13 | 360 | 3.2 | 14.5 | 0.00 | 0.00 | 0.00 | 61 | 1011.8 |
| 20260509034107 | 13 | 360 | 0.0 | 11.3 | 0.00 | 0.00 | 0.00 | 61 | 1011.8 |
| 20260509033610 | 13 | 360 | 3.2 | 9.7 | 0.00 | 0.00 | 0.00 | 61 | 1011.8 |
| 20260509033115 | 13 | 360 | 3.2 | 12.9 | 0.00 | 0.00 | 0.00 | 61 | 1011.8 |
| 20260509032614 | 13 | 360 | 3.2 | 11.3 | 0.00 | 0.00 | 0.00 | 62 | 1011.8 |
| 20260509032113 | 13 | 360 | 3.2 | 9.7 | 0.00 | 0.00 | 0.00 | 62 | 1011.8 |
| 20260509031504 | 13 | 360 | 1.6 | 8.0 | 0.00 | 0.00 | 0.00 | 62 | 1011.8 |
| 20260509031105 | 13 | 360 | 1.6 | 11.3 | 0.00 | 0.00 | 0.00 | 62 | 1011.8 |
| 20260509030517 | 13 | 360 | 0.0 | 6.4 | 0.00 | 0.00 | 0.00 | 62 | 1011.8 |
| 20260509030116 | 13 | 360 | 0.0 | 6.4 | 0.00 | 0.00 | 0.00 | 62 | 1011.8 |
| 20260509025618 | 13 | 360 | 1.6 | 8.0 | 0.00 | 0.00 | 0.00 | 61 | 1012.0 |
| 20260509025117 | 13 | 360 | 1.6 | 8.0 | 0.00 | 0.00 | 0.00 | 62 | 1012.0 |
| 20260509024625 | 13 | 360 | 3.2 | 8.0 | 0.00 | 0.00 | 0.00 | 62 | 1012.0 |
| 20260509024002 | 14 | 360 | 0.0 | 8.0 | 0.00 | 0.00 | 0.00 | 61 | 1012.0 |
| 20260509023601 | 14 | 360 | 3.2 | 8.0 | 0.00 | 0.00 | 0.00 | 62 | 1012.0 |
| 20260509023114 | 14 | 360 | 3.2 | 8.0 | 0.00 | 0.00 | 0.00 | 61 | 1012.0 |
| 20260509022607 | 14 | 360 | 0.0 | 8.0 | 0.00 | 0.00 | 0.00 | 62 | 1012.0 |
| 20260509022105 | 14 | 360 | 0.0 | 8.0 | 0.00 | 0.00 | 0.00 | 61 | 1012.0 |
| 20260509021612 | 14 | 360 | 1.6 | 8.0 | 0.00 | 0.00 | 0.00 | 61 | 1012.0 |
| 20260509021109 | 14 | 360 | 1.6 | 6.4 | 0.00 | 0.00 | 0.00 | 60 | 1011.9 |
| 20260509020519 | 14 | 360 | 1.6 | 6.4 | 0.00 | 0.00 | 0.00 | 60 | 1011.9 |
| 20260509020119 | 14 | 360 | 0.0 | 4.8 | 0.00 | 0.00 | 0.00 | 60 | 1011.9 |
| 20260509015618 | 15 | 360 | 1.6 | 11.3 | 0.00 | 0.00 | 0.00 | 60 | 1011.8 |
| 20260509015118 | 15 | 360 | 0.0 | 11.3 | 0.00 | 0.00 | 0.00 | 60 | 1011.8 |
| 20260509014511 | 15 | 360 | 1.6 | 6.4 | 0.00 | 0.00 | 0.00 | 60 | 1011.8 |
| 20260509014104 | 15 | 360 | 3.2 | 6.4 | 0.00 | 0.00 | 0.00 | 59 | 1011.8 |
| 20260509013608 | 15 | 360 | 0.0 | 8.0 | 0.00 | 0.00 | 0.00 | 59 | 1011.8 |
| 20260509013110 | 15 | 360 | 1.6 | 8.0 | 0.00 | 0.00 | 0.00 | 58 | 1011.8 |
| 20260509012607 | 15 | 360 | 0.0 | 4.8 | 0.00 | 0.00 | 0.00 | 58 | 1011.8 |
| 20260509012107 | 15 | 360 | 1.6 | 4.8 | 0.00 | 0.00 | 0.00 | 57 | 1011.8 |